Current weather by "City, St" or "zip code"  
 
Advertise Here

Current Conditions: Westfield, Barnes Municipal Airport, MA

Fair


62.0 F

Last Updated on Jul 27 2021, 1:53 am EDT
Humidity: 100%
Wind Speed: N 0.0 mph
Barometer 29.91 in
Dewpoint: 62.1 F
Visibility: 7.00 mi
Precip: --
Heat Index: NA
Wind Chill: NA
Current conditions at:

Westfield, Barnes Municipal Airport, MA (KBAF)

Lat: 42.15972 Lon: 72.71278

Local Radar Image active severe weather and emergency alerts image image weather storm and storm spotter reports image weather observation monitoring service image
Local
Radar
Active
Alerts
Storm Reports Obs
Monitoring

Sign-up For Email & Text Message Weather Alert Notification Services


Advertise Here

Observation History for Westfield, Barnes Municipal Airport, MA


Time Wind
(mph)
Vis
(mi)
Weather Precip (in) Temperature (F) Relative
Humidity
Wind
Chill
(F)
Heat
Index
(F)
Pressure
Air Dwpt altimeter
(in)
sea level
(mb)
Rmks
1:53 am EDT N 0.0 7.00 Fair -- 62.0 62.1 100% NA NA 29.91 1012.8
12:53 am EDT N 0.0 8.00 Fair -- 64.0 63.0 96% NA NA 29.92 1013.0
11:53 pm EDT S 4.6 9.00 Fair -- 65.0 64.0 97% NA NA 29.91 1012.8
10:53 pm EDT N 0.0 10.00 Fair -- 68.0 64.9 90% NA NA 29.91 1012.5
9:53 pm EDT W 4.6 9.00 Fair with Haze -- 72.0 64.9 79% NA NA 29.91 1012.5
8:53 pm EDT NW 3.5 8.00 Fair with Haze -- 75.0 66.0 74% NA NA 29.89 1012.0
7:53 pm EDT N 0.0 4.00 Fair with Haze -- 77.0 66.0 69% NA NA 29.87 1011.2
6:53 pm EDT W 3.5 9.00 Fair -- 84.0 61.0 46% NA 84 29.86 1010.7
5:53 pm EDT W 6.9 8.00 Fair -- 85.0 62.1 46% NA 86 29.86 1010.9
4:53 pm EDT W 10.4 3.00 Fair with Haze -- 87.0 62.1 43% NA 87 29.87 1011.2
3:53 pm EDT NW 9.2 3.00 Mostly Cloudy with Haze -- 87.0 62.1 43% NA 87 29.87 1011.1
2:53 pm EDT W 10.4 2.50 Overcast with Haze -- 87.0 63.0 45% NA 88 29.87 1011.3
1:53 pm EDT W 9.2 2.50 Overcast with Haze -- 86.0 62.1 45% NA 87 29.88 1011.6
12:53 pm EDT W 10.4 2.50 Overcast with Haze -- 85.0 62.1 46% NA 86 29.88 1011.6
11:53 am EDT W 8.1 4.00 Mostly Cloudy with Haze -- 83.0 64.9 55% NA 85 29.88 1011.7
10:53 am EDT W 10.4 9.00 Fair -- 82.0 66.9 60% NA 84 29.88 1011.6
9:53 am EDT N 0.0 10.00 Fair -- 77.0 70.0 79% NA NA 29.89 1011.7
8:53 am EDT S 3.5 10.00 Fair -- 73.0 70.0 90% NA NA 29.89 1011.8
7:53 am EDT N 0.0 6.00 Fog/Mist -- 71.0 69.1 94% NA NA 29.89 1011.8
6:53 am EDT N 0.0 0.25 Fog -- 66.0 66.0 100% NA NA 29.88 1011.7
5:53 am EDT N 0.0 0.25 Fog -- 65.0 64.0 97% NA NA 29.87 1011.4
4:53 am EDT N 0.0 0.25 Fog -- 67.0 66.0 97% NA NA 29.86 1011.0
3:53 am EDT N 0.0 0.25 Fog -- 68.0 66.9 96% NA NA 29.87 1011.2
2:53 am EDT N 0.0 0.25 Fog -- 67.0 66.9 100% NA NA 29.87 1011.2

Regional Weather Observation


Chicopee Falls / Westover Air Force Base, MA (KCEF)

Fog/Mist
63.0 F

Pittsfield Municipal Airport, MA (KPSF)

Fair
60.0 F

North Adams Harriman-and-West Airport, MA (KAQW)

Fog/Mist
62.0 F

Orange Municipal Airport, MA (KORE)

Fog/Mist
63.0 F

Bennington Morse State Airport, VT (KDDH)

Fog/Mist
60.0 F

Keene, Dillant-Hopkins Airport, NH (KEEN)

Fog/Mist
63.0 F
Advertise Here

Advertise Here